Location: Augsburg
(48.3836°N, 10.8929°E)
Time: 13:34:54
(UTC+01:00)

ISS - Pass Details

Date: 11 November 2017
Orbit: 402 x 407 km, 51.6° (Epoch: 19 November)

Event Time Altitude Azimuth Distance (km) Brightness Sun altitude
Exits shadow 05:10:04 45° 30° (NNE) 563 -3.0 -21.3°
Drops below altitude 10° 05:12:52 10° 83° (E) 1,456 0.1 -20.8°
Sets 05:15:00 0° 89° (E) 2,315 1.6 -20.4°
